Randolph AFB, TX

6:51 AM CDT on August 19, 2017 (GMT -0500)
Randolph Air Force Base

Weather History for KRND - June, 2013

Change the Weather History Date:

Monday, June 17, 2013

  Actual Average Record
Temperature  
Mean Temperature 84 °F -  
Max Temperature 94 °F 89 °F 104 °F (2011)
Min Temperature 75 °F 70 °F 66 °F (2002)
Cooling Degree Days 20    
Growing Degree Days 34 (Base 50)    
Moisture  
Dew Point 75 °F    
Average Humidity 79    
Maximum Humidity 100    
Minimum Humidity 40    
Precipitation  
Precipitation 0.00 in - - ()
Sea Level Pressure  
Sea Level Pressure 29.95 in    
Wind  
Wind Speed 8 mph (South)    
Max Wind Speed 15 mph    
Max Gust Speed 20 mph    
Visibility 10 miles    
Events      
Averages and records for this station are not official NWS values.
T = Trace of Precipitation, MM = Missing Value Source: NWS Daily Summary

Daily Weather History Graph

Daily Weather History Graph

Search for Another Location

Airport or City:

Trip Planner

Search our weather history database for the weather conditions in past years. The results will help you decide how hot, cold, wet, or windy it might be!

Date:

Astronomy

Jun. 17, 2013 Rise Set
Actual Time 6:33 AM CDT 8:35 PM CDT
Civil Twilight 6:05 AM CDT 9:02 PM CDT
Nautical Twilight 5:32 AM CDT 9:35 PM CDT
Astronomical Twilight 4:57 AM CDT 10:11 PM CDT
Moon 2:36 PM CDT (6/17) 1:45 AM CDT (6/17)
Length of Visible Light 14h 56m
Length of Day
14h 02m
First Quarter, 60% of the Moon is Illuminated
Jun 17
First Quarter
Jun 23
Full
Jun 29
Last Quarter
Jul 8
New
Jul 15
First Quarter

Hourly Weather History & Observations

Time (CDT) Temp. Heat Index Dew Point Humidity Pressure Visibility Wind Dir Wind Speed Gust Speed Precip Events Conditions
12:58 AM 75.9 °F - 75.6 °F 99% 29.96 in 10.0 mi South 5.8 mph - N/A   Clear
1:58 AM 75.2 °F - 75.0 °F 99% 29.96 in 10.0 mi SSE 5.8 mph - N/A   Scattered Clouds
2:07 AM 75.2 °F - 75.2 °F 100% 29.97 in 10.0 mi South 6.9 mph - N/A   Mostly Cloudy
2:58 AM 76.8 °F - 76.5 °F 99% 29.95 in 10.0 mi South 10.4 mph - N/A   Overcast
3:58 AM 76.8 °F - 76.5 °F 99% 29.94 in 10.0 mi South 6.9 mph - N/A   Overcast
4:34 AM 77.0 °F - 77.0 °F 100% 29.95 in 10.0 mi South 11.5 mph - N/A   Overcast
4:52 AM 77.0 °F - 75.2 °F 94% 29.95 in 10.0 mi South 8.1 mph - N/A   Overcast
4:58 AM 76.8 °F - 75.9 °F 97% 29.92 in 10.0 mi South 6.9 mph - N/A   Overcast
5:07 AM 77.0 °F - 75.2 °F 94% 29.96 in 10.0 mi South 8.1 mph - N/A   Overcast
5:25 AM 77.0 °F - 75.2 °F 94% 29.96 in 10.0 mi SSW 5.8 mph - N/A   Overcast
5:43 AM 77.0 °F - 75.2 °F 94% 29.97 in 10.0 mi SSW 8.1 mph - N/A   Overcast
5:52 AM 77.0 °F - 75.2 °F 94% 29.97 in 10.0 mi SSW 4.6 mph - N/A   Overcast
5:58 AM 77.2 °F - 75.0 °F 93% 29.96 in 10.0 mi SSW 4.6 mph - N/A   Overcast
6:07 AM 77.0 °F - 75.2 °F 94% 29.98 in 10.0 mi South 4.6 mph - N/A   Overcast
6:58 AM 77.2 °F - 75.7 °F 95% 29.96 in 10.0 mi South 6.9 mph - N/A   Overcast
7:16 AM 77.0 °F - 75.2 °F 94% 29.98 in 10.0 mi South 5.8 mph - N/A   Overcast
7:58 AM 77.9 °F - 76.5 °F 95% 29.96 in 10.0 mi South 9.2 mph - N/A   Overcast
8:34 AM 78.8 °F - 77.0 °F 94% 29.99 in 10.0 mi South 12.7 mph - N/A   Mostly Cloudy
8:43 AM 80.6 °F 87.1 °F 77.0 °F 89% 29.99 in 10.0 mi South 10.4 mph - N/A   Mostly Cloudy
8:58 AM 80.4 °F 86.5 °F 76.6 °F 88% 29.98 in 10.0 mi South 11.5 mph - N/A   Mostly Cloudy
9:16 AM 82.4 °F 90.9 °F 77.0 °F 84% 30.00 in 10.0 mi South 11.5 mph - N/A   Mostly Cloudy
9:52 AM 82.4 °F 90.9 °F 77.0 °F 84% 30.00 in 10.0 mi South 11.5 mph - N/A   Mostly Cloudy
9:58 AM 83.1 °F 91.6 °F 76.5 °F 80% 29.99 in 10.0 mi SSW 12.7 mph - N/A   Overcast
10:07 AM 82.4 °F 89.5 °F 75.2 °F 79% 30.01 in 10.0 mi SSW 13.8 mph - N/A   Mostly Cloudy
10:25 AM 84.2 °F 92.3 °F 75.2 °F 74% 30.01 in 10.0 mi Variable 6.9 mph 19.6 mph N/A   Mostly Cloudy
10:34 AM 84.2 °F 92.3 °F 75.2 °F 74% 30.01 in 10.0 mi SW 9.2 mph - N/A   Mostly Cloudy
10:58 AM 84.2 °F 92.3 °F 75.0 °F 74% 30.00 in 10.0 mi South 8.1 mph - N/A   Mostly Cloudy
11:16 AM 86.0 °F 95.1 °F 75.2 °F 70% 30.02 in 10.0 mi South 8.1 mph - N/A   Mostly Cloudy
11:43 AM 86.0 °F 95.1 °F 75.2 °F 70% 30.01 in 10.0 mi South 8.1 mph - N/A   Mostly Cloudy
11:58 AM 87.1 °F 95.4 °F 73.9 °F 65% 29.99 in 10.0 mi South 8.1 mph - N/A   Mostly Cloudy
12:04 PM 87.8 °F 95.6 °F 73.4 °F 62% 30.01 in 10.0 mi South 8.1 mph - N/A   Light Drizzle
12:58 PM 88.9 °F 97.6 °F 73.8 °F 61% 29.97 in 10.0 mi South 10.4 mph - N/A   Scattered Clouds
1:58 PM 91.0 °F 99.3 °F 73.0 °F 55% 29.95 in 10.0 mi SSW 9.2 mph 17.3 mph N/A   Scattered Clouds
2:58 PM 92.7 °F 99.9 °F 71.4 °F 50% 29.91 in 10.0 mi South 9.2 mph - N/A   Partly Cloudy
3:58 PM 94.1 °F 100.6 °F 70.7 °F 46% 29.88 in 10.0 mi South 15.0 mph - N/A   Partly Cloudy
4:58 PM 94.5 °F 101.4 °F 70.9 °F 46% 29.87 in 10.0 mi South 12.7 mph 16.1 mph N/A   Partly Cloudy
5:58 PM 94.1 °F 99.5 °F 69.1 °F 44% 29.86 in 10.0 mi South 9.2 mph - N/A   Partly Cloudy
6:58 PM 93.7 °F 96.7 °F 65.8 °F 40% 29.84 in 10.0 mi SSW 11.5 mph - N/A   Clear
7:58 PM 90.9 °F 95.3 °F 68.9 °F 48% 29.84 in 10.0 mi South 6.9 mph - N/A   Clear
8:58 PM 86.0 °F 92.6 °F 72.5 °F 64% 29.86 in 10.0 mi South 9.2 mph - N/A   Partly Cloudy
9:58 PM 84.2 °F 92.3 °F 75.2 °F 74% 29.88 in 10.0 mi SSE 10.4 mph - N/A   Clear
10:58 PM 82.0 °F 88.9 °F 75.4 °F 80% 29.91 in 10.0 mi SSE 11.5 mph - N/A   Clear
11:58 PM 80.1 °F 84.6 °F 74.3 °F 82% 29.94 in 10.0 mi South 8.1 mph - N/A   Clear